Theta_e
324 324 323 322 322 322 321 318 319 319 317 316 314 315 316 317 316 316 316 314 314 314 313 313 312 311 311 311 312 312 311 310 309 309 310 309 308 308 306 306 306 305
323 323 321 322 321 319 320 319 318 318 317 317 317 317 316 315 314 314 312 311 311 312 312 312 311 310 310 309 309 309 308 307 306 306 306 306 305 306 305 305 303 303
321 321 321 320 320 318 318 317 317 317 317 316 317 316 314 313 311 310 311 311 311 311 311 311 310 310 310 309 308 307 307 306 304 304 304 304 304 303 303 302 301 301
320 321 320 320 320 318 316 314 314 314 314 312 313 312 311 309 309 308 309 306 309 308 308 309 309 309 309 308 306 304 305 305 303 303 301 300 300 300 299 298 297 296
319 319 319 319 318 316 314 314 312 313 312 312 310 307 306 306 307 306 306 305 305 304 304 304 304 305 305 305 305 303 302 301 301 301 299 297 297 296 296 296 295 294
317 318 316 317 315 314 312 313 312 312 311 309 308 305 306 306 305 304 302 301 300 300 300 299 300 300 301 302 302 301 299 297 296 298 296 295 294 295 296 295 293 289
315 314 314 314 313 312 312 312 311 310 311 310 306 305 304 303 302 301 301 300 299 298 298 297 297 295 297 299 298 296 295 294 294 297 296 294 293 289 289 290 290 288
313 313 313 312 312 311 311 310 310 310 308 305 305 303 303 302 301 299 298 298 298 297 296 295 294 294 294 297 295 293 292 295 295 296 294 291 290 289 289 288 289 287
311 310 310 309 309 308 308 308 307 305 303 304 302 299 299 300 298 296 296 297 296 295 294 293 294 293 294 296 295 295 294 294 294 293 290 289 288 288 287 287 286 286
307 306 307 307 307 306 306 304 303 301 301 302 300 299 298 295 295 294 295 295 293 293 293 294 293 293 294 296 296 295 293 291 290 290 289 289 288 287 286 286 286 285
304 304 305 304 304 303 302 299 299 299 299 299 297 297 295 293 292 293 294 295 294 294 294 293 293 293 294 293 293 292 291 289 289 288 288 287 287 286 285 286 286 286
302 302 303 302 300 299 297 297 297 297 297 296 297 295 292 292 292 293 294 294 293 294 294 293 292 292 292 290 288 287 288 288 288 287 286 286 285 285 286 286 286 285
301 301 301 298 297 296 295 295 296 295 295 295 293 293 292 292 292 292 291 293 292 291 291 291 290 289 288 288 287 287 287 287 286 286 285 285 285 285 285 285 285 285
298 296 296 295 294 293 294 294 293 293 293 292 292 292 292 291 291 291 289 289 289 289 289 288 287 287 287 287 287 287 286 286 286 286 286 286 285 285 285 285 285 285
293 293 292 292 292 292 292 292 292 291 291 290 291 290 290 290 290 288 287 287 287 287 287 287 287 287 287 287 286 286 287 287 286 286 285 285 285 284 284 284 285 285
291 291 291 291 291 291 291 291 290 290 290 290 290 289 289 288 287 287 287 287 287 286 287 287 287 287 286 287 287 286 286 286 286 285 285 284 284 283 283 283 283 283
291 291 291 291 291 291 290 290 289 290 289 289 288 288 288 287 288 288 288 288 287 287 287 288 288 287 286 289 289 288 286 286 285 285 285 284 284 283 282 282 283 283
291 290 291 291 290 290 289 289 289 289 289 288 288 287 287 288 288 288 288 288 288 288 288 288 287 287 289 290 290 288 287 285 285 285 284 284 284 283 283 282 282 282
290 291 291 290 290 289 289 288 288 289 288 288 288 287 287 288 287 287 287 287 287 287 287 287 287 289 290 290 289 288 287 286 285 284 284 284 284 283 283 282 282 281
290 291 290 290 289 289 289 288 289 288 288 288 287 287 287 287 286 286 286 286 286 286 286 287 288 289 291 290 289 288 287 286 284 284 284 284 283 283 283 282 282 281
290 291 290 289 289 288 288 288 289 288 287 287 287 287 287 286 285 285 285 285 285 286 287 287 288 290 290 289 289 288 287 285 284 283 283 282 282 282 282 282 281 281
290 290 289 288 288 288 288 288 288 287 287 286 286 286 285 285 284 285 284 284 285 286 286 286 288 290 289 289 289 288 286 283 282 282 281 281 281 281 281 281 281 280
290 290 288 288 287 287 287 287 287 286 286 285 285 285 284 284 284 284 284 284 285 285 286 286 287 288 289 289 288 287 284 282 282 281 280 280 280 280 279 279 279 280
290 290 288 287 287 287 287 287 286 286 285 285 285 284 284 283 283 283 283 284 284 285 285 285 285 286 288 288 287 286 283 281 281 280 279 279 278 279 279 279 279 279
289 288 288 287 287 287 287 286 285 285 284 284 285 284 283 283 282 282 282 283 283 284 284 284 284 285 287 287 286 285 282 281 280 279 278 278 278 277 278 278 278 279
287 287 287 287 287 286 286 285 285 283 283 283 283 283 282 281 281 281 281 281 281 282 283 284 283 284 285 286 285 284 283 280 279 278 277 277 277 277 276 277 277 278
Wind_Speed
13 12 13 12 12 11 11 11 10 11 10 10 11 10 11 9 7 8 8 7 8 8 8 9 8 8 7 7 6 6 5 5 4 4 6 6 6 7 7 7 7 6
15 14 12 11 10 9 9 11 11 11 11 10 10 10 7 7 8 9 9 9 8 8 8 9 8 8 8 7 7 7 7 6 6 4 6 8 6 6 7 8 7 6
13 13 13 13 12 12 12 10 10 10 9 10 9 8 8 8 9 7 8 9 9 8 8 9 8 8 8 8 7 6 6 7 7 6 7 8 6 7 6 6 5 6
13 13 13 12 11 11 10 9 9 8 7 7 8 8 8 8 9 9 8 8 8 8 7 7 8 8 9 8 8 6 7 7 7 7 7 5 5 6 5 5 6 6
12 11 11 10 9 9 9 10 10 9 9 9 7 7 7 8 8 8 8 7 8 8 7 7 7 8 8 8 8 7 6 7 6 7 8 6 5 6 5 5 6 6
8 8 8 9 9 10 9 10 10 10 9 9 9 8 9 10 9 10 9 9 7 8 8 7 8 7 8 8 8 7 7 7 6 8 9 8 5 4 5 6 8 7
8 8 8 8 8 9 10 10 9 10 10 10 9 9 9 9 9 10 9 9 9 8 9 8 9 8 6 8 8 8 7 8 7 8 9 6 7 5 5 7 8 7
9 8 8 8 9 9 9 9 9 9 9 9 11 10 10 11 10 9 9 9 9 8 8 8 9 10 8 8 9 8 7 7 8 8 8 7 7 8 7 6 8 8
8 8 8 9 10 9 9 9 9 8 9 11 9 9 7 10 10 9 9 9 9 9 8 9 8 9 9 9 10 11 9 7 7 8 10 9 9 9 8 8 8 7
7 7 8 9 9 8 9 8 8 8 8 9 10 10 10 7 7 9 9 9 10 9 9 9 8 8 8 8 10 9 9 8 8 9 9 9 9 9 9 7 8 8
6 7 8 8 9 7 8 8 8 9 8 10 9 9 9 9 7 7 9 9 10 10 9 9 9 9 9 8 7 7 9 10 9 9 9 8 7 8 7 8 7 7
8 8 8 9 8 8 9 9 9 9 9 7 10 11 8 7 10 7 9 9 8 9 9 8 8 8 8 9 10 10 10 9 9 8 8 7 8 7 7 7 7 7
8 8 8 8 8 8 8 8 9 9 10 10 7 10 11 9 7 8 6 9 8 8 9 9 8 8 10 12 11 10 11 10 9 8 8 7 7 7 7 7 6 7
6 5 7 7 7 7 8 7 7 7 7 7 9 9 9 9 10 9 7 7 8 8 8 9 11 12 12 11 10 10 10 9 10 9 9 7 6 5 5 6 7 7
6 5 5 6 7 7 7 7 7 7 7 7 7 8 7 8 8 10 11 10 9 11 11 11 12 12 11 12 12 10 10 10 10 10 9 9 7 6 5 6 6 6
6 6 7 7 8 8 8 7 8 8 8 8 8 8 8 8 9 11 12 13 12 11 10 10 10 9 10 14 12 11 11 9 9 9 9 8 9 8 6 6 5 5
7 7 8 8 8 8 8 8 8 8 8 8 8 9 10 9 11 12 11 10 10 10 10 9 8 8 14 15 13 14 11 10 9 8 7 8 8 9 8 7 6 5
8 8 8 8 8 8 9 8 8 8 8 9 9 9 8 9 10 11 10 11 9 10 9 9 8 11 17 14 14 15 10 10 8 8 7 7 7 8 7 7 7 6
8 9 8 8 8 9 9 8 9 9 9 9 10 9 9 11 10 11 11 10 10 11 9 9 8 13 14 16 15 15 14 10 7 7 8 7 7 8 8 7 7 6
8 9 9 10 10 10 10 10 10 10 9 8 8 9 10 9 9 10 9 10 10 10 10 9 9 14 15 15 15 15 14 10 7 7 6 7 7 7 6 7 7 7
9 9 9 9 9 9 9 9 9 9 9 9 9 10 11 11 12 11 9 9 8 8 10 9 8 14 14 15 15 15 15 10 7 6 7 7 6 6 6 6 6 5
9 8 7 7 8 8 9 9 9 10 10 8 8 7 5 6 6 7 10 10 9 9 10 9 9 14 14 16 16 16 16 7 6 7 7 7 6 6 5 5 5 5
9 10 8 9 8 9 9 9 9 9 8 7 9 8 9 9 9 8 8 9 10 10 11 9 9 13 15 16 16 17 12 6 7 6 6 6 6 6 5 5 5 5
8 9 9 9 9 10 9 8 7 6 8 8 10 11 10 9 8 8 7 8 10 10 10 11 9 12 15 15 16 16 11 10 6 7 7 6 6 6 5 5 5 8
5 6 7 8 9 8 8 9 9 9 8 7 7 7 8 7 8 8 7 6 6 8 10 11 10 11 14 15 15 15 11 7 7 7 8 6 6 6 4 4 4 5
5 6 7 9 9 8 7 8 7 8 9 9 7 7 8 8 7 7 9 7 6 7 8 8 10 9 11 15 15 14 13 8 5 8 8 8 6 7 6 4 4 4
Wind_Direction
203 201 203 199 202 199 189 190 192 194 194 193 191 194 188 188 164 169 164 153 152 146 149 142 134 135 133 131 127 119 119 120 121 128 133 130 129 138 132 130 124 122
204 201 201 199 199 195 193 189 188 190 191 189 190 185 178 163 168 161 157 154 149 153 150 140 148 141 128 126 128 122 123 128 123 125 128 127 130 123 122 125 119 121
201 200 197 197 196 194 190 185 183 189 186 188 180 174 168 168 159 164 156 154 154 154 157 151 145 144 137 130 126 130 137 139 132 129 123 127 129 123 123 120 114 111
203 200 198 199 195 188 179 173 181 181 173 163 178 173 164 164 158 156 153 151 150 151 150 147 152 144 136 132 123 134 148 145 141 130 116 112 119 120 121 111 109 103
201 199 198 195 190 178 171 177 178 176 176 177 159 154 152 152 155 151 150 151 148 145 146 146 140 136 135 134 145 146 144 137 142 129 118 118 105 111 126 127 119 113
203 200 195 188 179 170 175 182 179 174 170 161 168 159 161 157 157 157 154 151 152 149 142 144 139 140 137 145 142 145 143 136 142 127 124 116 121 121 124 125 115 107
192 189 187 179 172 177 178 181 174 172 173 168 149 164 154 153 154 158 154 153 150 149 148 150 145 142 148 143 136 142 140 140 141 132 124 121 113 74 110 120 120 111
190 185 180 177 177 176 179 176 172 173 162 151 165 159 159 153 157 155 148 150 148 144 149 146 147 130 139 143 143 132 130 141 139 135 130 123 132 136 132 128 131 130
182 181 176 177 177 178 178 172 169 161 158 159 157 154 155 152 153 151 147 147 141 146 127 132 146 125 135 144 145 144 137 142 142 141 135 151 154 153 146 141 132 127
180 174 174 175 178 176 171 165 158 157 158 156 153 151 147 140 144 143 141 143 122 125 143 146 146 147 150 154 152 148 145 132 105 127 151 160 154 149 147 143 135 127
173 171 175 176 173 165 162 153 153 152 155 150 145 144 141 138 136 141 139 143 150 154 153 153 154 152 147 143 133 131 132 127 141 150 155 153 149 145 141 135 133 130
172 172 176 172 161 156 157 157 152 154 150 150 149 141 138 141 143 149 149 148 148 153 150 147 147 148 145 136 119 106 130 138 145 147 148 143 139 137 137 137 135 135
173 174 164 159 159 157 154 153 154 152 150 148 146 143 142 141 143 138 143 145 148 147 152 150 148 136 129 124 132 139 142 142 144 140 136 131 133 137 139 138 133 133
167 155 154 155 149 146 149 146 139 140 139 136 140 140 138 142 146 146 138 133 133 144 150 145 127 130 127 133 142 146 146 145 142 136 133 128 129 131 129 122 121 116
141 136 128 130 133 132 133 135 135 132 131 132 131 126 129 136 137 127 128 130 118 122 132 132 146 152 150 150 149 150 153 144 144 144 143 140 133 123 116 112 110 108
134 131 133 131 136 141 142 138 134 134 133 131 131 131 131 132 113 112 123 139 145 145 148 154 156 153 150 153 157 155 152 144 141 149 148 142 135 128 119 116 112 116
139 144 143 149 149 141 139 139 137 137 134 131 133 137 140 143 144 147 150 149 148 151 155 159 157 153 157 163 160 153 146 148 148 149 146 139 140 138 138 134 126 118
155 152 153 150 147 146 144 140 139 139 141 142 141 144 149 151 156 159 156 158 158 162 159 155 147 153 161 160 159 155 154 149 147 142 143 141 142 139 134 134 132 126
158 159 156 152 153 148 146 147 151 150 149 151 155 155 151 160 161 156 159 158 157 155 151 145 139 156 155 156 154 154 153 145 141 140 138 144 144 141 139 136 135 132
165 164 163 163 158 156 156 158 160 161 157 153 147 153 160 157 157 157 155 159 159 154 144 141 141 158 151 149 149 148 147 140 134 133 130 133 136 136 134 139 145 146
171 172 167 163 161 159 160 163 162 155 156 159 161 164 165 165 162 158 158 154 154 149 139 141 150 154 148 147 146 144 140 132 122 123 122 118 116 116 126 131 140 142
171 170 164 160 162 162 164 165 164 163 159 156 153 151 141 136 139 149 156 157 154 146 138 141 151 154 148 149 146 142 136 126 128 128 125 124 117 121 126 127 135 139
173 165 165 167 167 166 169 166 161 157 155 155 153 157 155 161 163 162 161 156 152 149 142 143 149 155 150 148 146 143 135 130 131 125 123 121 125 128 128 134 140 140
175 168 167 168 169 174 170 164 156 149 159 165 163 162 166 166 155 151 159 162 155 153 153 148 151 155 150 149 149 151 146 143 140 131 127 130 126 127 129 132 139 142
174 168 167 168 174 173 167 163 167 165 158 160 161 157 154 148 154 152 149 150 149 143 145 144 144 151 151 151 152 153 149 138 139 133 133 144 141 139 141 135 144 151
171 172 171 172 172 166 164 166 155 151 164 163 156 154 150 152 152 154 151 148 141 141 145 146 145 149 153 154 156 156 153 142 141 141 146 148 150 152 147 155 156 164